CW5367 Weather Reports


time (UTC)temp
C
wind
direction
speed
KPH
gust
KPH
rain 1hr
cm
rain 24hr
cm
rain mn
cm
humidity
%
barometer
mb
20260504002553 10 0 0.0 0.0 0.00 0.00 0.00 54 1011.8
20260504002052 10 0 0.0 0.0 0.00 0.00 0.00 53 1011.7
20260504001602 10 0 0.0 0.0 0.00 0.00 0.00 51 1011.6
20260504001052 11 0 0.0 0.0 0.00 0.00 0.00 50 1011.6
20260504000552 11 0 0.0 0.0 0.00 0.00 0.00 49 1011.5
20260503235552 11 0 0.0 0.0 0.00 0.00 0.00 48 1011.4
20260503235052 11 0 0.0 0.0 0.00 0.00 0.00 46 1011.4
20260503234552 12 0 0.0 0.0 0.00 0.00 0.00 47 1011.4
20260503234052 12 0 0.0 0.0 0.00 0.00 0.00 48 1011.4
20260503233552 12 0 0.0 0.0 0.00 0.00 0.00 43 1011.4
20260503233053 12 0 0.0 0.0 0.00 0.00 0.00 43 1011.4
20260503232553 12 0 0.0 0.0 0.00 0.00 0.00 41 1011.4
20260503232049 13 0 0.0 0.0 0.00 0.00 0.00 43 1011.3
20260503231607 13 0 0.0 1.6 0.00 0.00 0.00 43 1011.3
20260503231052 13 0 0.0 1.6 0.00 0.00 0.00 41 1011.3
20260503230551 13 0 0.0 0.0 0.00 0.00 0.00 38 1011.3
20260503230105 13 0 0.0 1.6 0.00 0.00 0.00 39 1011.2
20260503225556 13 0 0.0 8.0 0.00 0.00 0.00 40 1011.1
20260503225051 13 0 0.0 8.0 0.00 0.00 0.00 39 1011.2
20260503224603 13 0 0.0 8.0 0.00 0.00 0.00 41 1011.0
20260503224052 14 0 0.0 3.2 0.00 0.00 0.00 40 1011.0
20260503223552 14 0 0.0 11.3 0.00 0.00 0.00 38 1011.0
20260503223051 14 0 0.0 11.3 0.00 0.00 0.00 37 1011.0
20260503222552 14 0 0.0 8.0 0.00 0.00 0.00 38 1011.0
20260503222052 14 0 0.0 12.9 0.00 0.00 0.00 40 1011.0
20260503221556 14 0 0.0 12.9 0.00 0.00 0.00 38 1010.9
20260503221054 14 0 0.0 8.0 0.00 0.00 0.00 37 1010.9
20260503220552 15 0 0.0 8.0 0.00 0.00 0.00 39 1011.0
20260503220055 15 0 0.0 8.0 0.00 0.00 0.00 35 1010.8
20260503215552 15 0 0.0 6.4 0.00 0.00 0.00 36 1010.7
20260503215052 15 0 0.0 6.4 0.00 0.00 0.00 37 1010.8
20260503214558 15 0 0.0 8.0 0.00 0.00 0.00 38 1010.9
20260503214048 15 0 0.0 8.0 0.00 0.00 0.00 34 1010.9
20260503213553 15 0 0.0 4.8 0.00 0.00 0.00 36 1010.8
20260503213103 15 0 0.0 3.2 0.00 0.00 0.00 36 1010.8
20260503212553 15 0 0.0 1.6 0.00 0.00 0.00 36 1010.8
20260503212052 15 0 0.0 9.7 0.00 0.00 0.00 38 1010.8
20260503211614 15 0 0.0 14.5 0.00 0.00 0.00 33 1010.8
20260503211052 15 220 0.0 14.5 0.00 0.00 0.00 36 1011.0
20260503210552 15 0 0.0 6.4 0.00 0.00 0.00 34 1010.9
20260503210056 15 184 0.0 4.8 0.00 0.00 0.00 35 1010.9
20260503205552 15 0 0.0 4.8 0.00 0.00 0.00 36 1010.7
20260503205052 15 0 0.0 4.8 0.00 0.00 0.00 37 1010.7
20260503204558 15 0 0.0 14.5 0.00 0.00 0.00 37 1010.8
20260503204052 15 0 0.0 14.5 0.00 0.00 0.00 37 1010.9
20260503203552 15 0 0.0 14.5 0.00 0.00 0.00 36 1011.0
20260503203059 15 0 0.0 6.4 0.00 0.00 0.00 35 1010.9
20260503202552 15 0 0.0 6.4 0.00 0.00 0.00 37 1011.0
20260503202054 15 0 0.0 6.4 0.00 0.00 0.00 38 1011.1
20260503201556 15 0 0.0 9.7 0.00 0.00 0.00 38 1011.1
20260503201052 14 0 0.0 9.7 0.00 0.00 0.00 38 1011.0
20260503200548 13 0 0.0 9.7 0.00 0.00 0.00 38 1011.1
20260503200106 14 0 0.0 14.5 0.00 0.00 0.00 39 1011.3
20260503195548 15 0 0.0 14.5 0.00 0.00 0.00 39 1011.2
20260503195052 15 0 1.6 14.5 0.00 0.00 0.00 37 1011.2
20260503194604 15 0 0.0 11.3 0.00 0.00 0.00 34 1011.3
20260503194053 15 42 0.0 11.3 0.00 0.00 0.00 40 1011.3
20260503193552 15 0 0.0 11.3 0.00 0.00 0.00 34 1011.2
20260503193104 14 0 0.0 11.3 0.00 0.00 0.00 36 1011.2
20260503192552 14 71 0.0 1.6 0.00 0.00 0.00 39 1011.4
20260503192052 14 0 0.0 11.3 0.00 0.00 0.00 38 1011.4
20260503191606 14 0 0.0 11.3 0.00 0.00 0.00 38 1011.5
20260503191052 15 0 0.0 11.3 0.00 0.00 0.00 37 1011.6
20260503190552 14 0 0.0 11.3 0.00 0.00 0.00 39 1011.5
20260503190051 14 55 0.0 9.7 0.00 0.00 0.00 41 1011.4
20260503185551 14 0 0.0 9.7 0.00 0.00 0.00 42 1011.4
20260503185052 13 0 0.0 4.8 0.00 0.00 0.00 39 1011.5
20260503184601 13 0 0.0 9.7 0.00 0.00 0.00 43 1011.6
20260503184053 13 0 0.0 16.1 0.00 0.00 0.00 38 1011.8
20260503183549 13 0 0.0 16.1 0.00 0.00 0.00 39 1011.7
20260503183055 13 0 0.0 11.3 0.00 0.00 0.00 37 1011.8
20260503182552 13 0 0.0 11.3 0.00 0.00 0.00 37 1011.8
20260503182053 13 0 0.0 11.3 0.00 0.00 0.00 37 1011.9
20260503181612 13 0 0.0 9.7 0.00 0.00 0.00 39 1011.8
20260503181053 13 0 0.0 9.7 0.00 0.00 0.00 42 1011.8
20260503180552 13 0 0.0 3.2 0.00 0.00 0.00 40 1011.8
20260503180115 13 0 0.0 1.6 0.00 0.00 0.00 41 1011.9
20260503175551 13 0 0.0 12.9 0.00 0.00 0.00 39 1011.8
20260503175052 13 0 0.0 12.9 0.00 0.00 0.00 45 1011.9
20260503174558 13 0 0.0 8.0 0.00 0.00 0.00 42 1011.9
20260503174049 12 0 0.0 6.4 0.00 0.00 0.00 47 1011.9
20260503173552 12 0 0.0 3.2 0.00 0.00 0.00 41 1012.1
20260503173106 12 0 0.0 14.5 0.00 0.00 0.00 40 1012.1
20260503172556 12 0 0.0 14.5 0.00 0.00 0.00 43 1012.2
20260503172052 12 332 1.6 9.7 0.00 0.00 0.00 43 1012.2
20260503171554 12 323 0.0 8.0 0.00 0.00 0.00 44 1012.1
20260503171051 12 0 0.0 8.0 0.00 0.00 0.00 49 1012.3
20260503170553 12 0 0.0 8.0 0.00 0.00 0.00 43 1012.4
20260503150552 9 0 0.0 9.7 0.00 0.00 0.00 54 1013.2
20260503150106 9 0 0.0 9.7 0.00 0.00 0.00 53 1013.1
20260503131052 9 0 0.0 4.8 0.00 0.00 0.00 58 1012.9
20260503130554 8 0 0.0 4.8 0.00 0.00 0.00 61 1012.8
20260503110553 5 0 0.0 0.0 0.00 0.00 0.00 67 1012.3
20260503100105 5 0 0.0 0.0 0.00 0.00 0.00 68 1011.3
20260503081557 6 0 0.0 0.0 0.00 0.00 0.00 66 1010.8
20260503081052 6 0 0.0 0.0 0.00 0.00 0.00 67 1010.8
20260503080555 6 0 0.0 0.0 0.00 0.00 0.00 66 1010.8
20260503080105 6 0 0.0 0.0 0.00 0.00 0.00 65 1010.7
20260503072554 6 0 0.0 0.0 0.00 0.00 0.00 62 1010.6
20260503072052 7 0 0.0 0.0 0.00 0.00 0.00 62 1010.6
20260503071601 7 0 0.0 0.0 0.00 0.00 0.00 61 1010.6
20260503071055 7 0 0.0 0.0 0.00 0.00 0.00 62 1010.6
20260503070552 7 0 0.0 0.0 0.00 0.00 0.00 62 1010.5
20260503055055 7 0 0.0 0.0 0.00 0.00 0.00 57 1010.7
20260503054606 7 0 0.0 0.0 0.00 0.00 0.00 57 1010.6
20260503054052 7 0 0.0 0.0 0.00 0.00 0.00 57 1010.7
20260503053552 7 0 0.0 0.0 0.00 0.00 0.00 56 1010.7
20260503053059 7 0 0.0 3.2 0.00 0.00 0.00 57 1010.8
20260503052552 7 0 0.0 3.2 0.00 0.00 0.00 57 1010.8
20260503052053 7 0 0.0 3.2 0.00 0.00 0.00 57 1010.8
20260503051602 7 0 0.0 0.0 0.00 0.00 0.00 57 1010.9
20260503051052 8 0 0.0 0.0 0.00 0.00 0.00 57 1011.0
20260503050553 8 0 0.0 0.0 0.00 0.00 0.00 59 1011.1
20260503050059 8 0 0.0 0.0 0.00 0.00 0.00 56 1011.1
20260503045553 8 0 0.0 0.0 0.00 0.00 0.00 58 1011.1
20260503045053 8 0 0.0 0.0 0.00 0.00 0.00 58 1011.1
20260503044610 8 0 0.0 0.0 0.00 0.00 0.00 56 1011.1
20260503044052 8 0 0.0 0.0 0.00 0.00 0.00 56 1011.2
20260503043552 8 0 0.0 0.0 0.00 0.00 0.00 58 1011.3
20260503043058 8 0 0.0 0.0 0.00 0.00 0.00 56 1011.4
20260503042552 8 0 0.0 0.0 0.00 0.00 0.00 56 1011.4
20260503042052 8 0 0.0 0.0 0.00 0.00 0.00 53 1011.4
20260503041600 8 0 0.0 0.0 0.00 0.00 0.00 55 1011.4
20260503041054 8 0 0.0 0.0 0.00 0.00 0.00 54 1011.4
20260503040552 8 0 0.0 1.6 0.00 0.00 0.00 56 1011.4
20260503040104 8 0 0.0 1.6 0.00 0.00 0.00 54 1011.4
20260503035554 8 0 0.0 1.6 0.00 0.00 0.00 54 1011.4
20260503035053 8 0 0.0 0.0 0.00 0.00 0.00 54 1011.3
20260503034602 8 0 0.0 0.0 0.00 0.00 0.00 54 1011.3
20260503034053 8 0 0.0 0.0 0.00 0.00 0.00 54 1011.3
20260503033558 8 0 0.0 0.0 0.00 0.00 0.00 54 1011.3
20260503033058 8 0 0.0 0.0 0.00 0.00 0.00 53 1011.3
20260503032554 8 0 0.0 0.0 0.00 0.00 0.00 55 1011.3
20260503032052 8 0 0.0 0.0 0.00 0.00 0.00 53 1011.3
20260503031555 8 0 0.0 0.0 0.00 0.00 0.00 55 1011.4
20260503031053 8 0 0.0 0.0 0.00 0.00 0.00 56 1011.4
20260503030552 8 0 0.0 0.0 0.00 0.00 0.00 54 1011.4
20260503030124 8 0 0.0 0.0 0.00 0.00 0.00 54 1011.5
20260503025552 8 0 0.0 0.0 0.00 0.00 0.00 57 1011.5
20260503025056 8 0 0.0 0.0 0.00 0.00 0.00 56 1011.5
20260503024621 8 0 0.0 0.0 0.00 0.00 0.00 55 1011.5
20260503024053 8 0 0.0 0.0 0.00 0.00 0.00 53 1011.5
20260503023555 8 0 0.0 0.0 0.00 0.00 0.00 53 1011.5
20260503023057 8 0 0.0 0.0 0.00 0.00 0.00 54 1011.5
20260503022552 9 0 0.0 0.0 0.00 0.00 0.00 56 1011.5
20260503022056 9 0 0.0 0.0 0.00 0.00 0.00 54 1011.4
20260503021606 9 0 0.0 0.0 0.00 0.00 0.00 53 1011.5
20260503021053 9 0 0.0 0.0 0.00 0.00 0.00 55 1011.6
20260503020553 9 0 0.0 0.0 0.00 0.00 0.00 54 1011.5
20260503020055 9 0 0.0 0.0 0.00 0.00 0.00 55 1011.5
20260503015552 9 0 0.0 0.0 0.00 0.00 0.00 54 1011.6
20260503015052 9 0 0.0 0.0 0.00 0.00 0.00 53 1011.6
20260503014604 9 0 0.0 0.0 0.00 0.00 0.00 53 1011.5
20260503014052 9 0 0.0 0.0 0.00 0.00 0.00 54 1011.6
20260503013552 10 0 0.0 0.0 0.00 0.00 0.00 55 1011.7
20260503013054 10 0 0.0 0.0 0.00 0.00 0.00 57 1011.7
20260503012552 10 0 0.0 0.0 0.00 0.00 0.00 57 1011.6
20260503012052 10 0 0.0 0.0 0.00 0.00 0.00 58 1011.8
20260503011558 10 0 0.0 0.0 0.00 0.00 0.00 58 1011.7
20260503011052 10 0 0.0 0.0 0.00 0.00 0.00 59 1011.7
20260503010553 10 0 0.0 0.0 0.00 0.00 0.00 57 1011.6
20260503010106 10 0 0.0 0.0 0.00 0.00 0.00 56 1011.5
20260503005557 10 0 0.0 0.0 0.00 0.00 0.00 57 1011.5
20260503005053 10 0 0.0 0.0 0.00 0.00 0.00 56 1011.4
20260503004555 10 0 0.0 0.0 0.00 0.00 0.00 59 1011.2
20260503004052 10 0 0.0 0.0 0.00 0.00 0.00 57 1011.2
20260503003552 10 0 0.0 0.0 0.00 0.00 0.00 59 1011.2
20260503003059 10 0 0.0 0.0 0.00 0.00 0.00 60 1011.2